Regional Weather Roundup
Issued by NWS

Home | Current Version | Previous Version | Text Only | Print | Product List | Glossary Off
Versions: 1 2 3 4 5 6 7 8 9 10 11 12 13 14 15 16 17 18 19 20 21 22 23 24 25 26 27 28 29 30 31 32 33 34 35 36 37 38 39 40 41 42 43 44 45 46 47 48 49 50

000
ASUS43 KOAX 231110
RWRNE

WEATHER ROUNDUP FOR NEBRASKA
NATIONAL WEATHER SERVICE OMAHA NE
600 AM CDT MON APR 23 2018

NOTES: SATELLITE DATA IS BEING USED TO AUGMENT CLOUD COVER ABOVE
       12000 FEET.
       "FAIR" INDICATES FEW OR NO CLOUDS BELOW 12,000 FEET WITH NO
       SIGNIFICANT WEATHER AND/OR OBSTRUCTIONS TO VISIBILITY.


NEZ001>004-019>022-054>056-231200-
NEBRASKA PANHANDLE

CITY           SKY/WX    TMP DP  RH WIND       PRES   REMARKS
SCOTTSBLUFF    CLEAR     36  35  96 SE9       30.09F WCI  29
ALLIANCE       CLEAR     34  33  96 SE5       30.10S WCI  30
CHADRON        CLEAR     37  33  85 CALM      30.09S
GORDON         FAIR      38  34  85 CALM      30.11F
KIMBALL        CLEAR     33  32  96 S3        30.10F
SIDNEY         CLEAR     35  33  92 S8        30.11S WCI  29
$$

NEZ057>060-069>072-079>082-231200-
SOUTHWEST NEBRASKA

CITY           SKY/WX    TMP DP  RH WIND       PRES   REMARKS
NORTH PLATTE   CLEAR     33  30  88 E5        30.16F FOG     WCI  29
IMPERIAL       CLEAR     34  33  96 CALM      30.15S
LEXINGTON      CLOUDY    38  36  92 CALM      30.18S FOG
MCCOOK         CLEAR     34  33  96 CALM      30.17R FOG
OGALLALA       CLEAR     32  31  95 CALM      30.14F
$$

NEZ005>010-023>029-035>040-094-231200-
NORTH CENTRAL NEBRASKA

CITY           SKY/WX    TMP DP  RH WIND       PRES   REMARKS
VALENTINE      CLEAR     37  35  92 CALM      30.15R
AINSWORTH      CLEAR     35  35  97 S3        30.16S
BROKEN BOW     PTCLDY    34  31  88 CALM      30.17R
O`NEILL        CLEAR     43  37  77 S5        30.18S
ORD            CLEAR     32  31  96 CALM      30.17S
THEDFORD       CLEAR     35  34  95 CALM      30.17R
$$

NEZ041-046>049-061>064-073>077-083>087-231200-
SOUTH CENTRAL NEBRASKA

CITY           SKY/WX    TMP DP  RH WIND       PRES   REMARKS
GRAND ISLAND   CLEAR     42  36  79 N3        30.18R
AURORA         PTCLDY    42  30  62 E5        30.17S
HASTINGS       CLEAR     41  37  86 NW3       30.17S
HEBRON         CLEAR     37  34  90 CALM      30.17R
HOLDREGE       CLEAR     36  35  95 N3        30.17R
KEARNEY        PTCLDY    42  38  85 NW5       30.18S
YORK             N/A     39  30  70 CALM      30.18R
$$

NEZ011>018-030>034-042>045-231200-
NORTHEAST NEBRASKA

CITY           SKY/WX    TMP DP  RH WIND       PRES   REMARKS
NORFOLK        PTCLDY    36  32  85 CALM      30.18R
ALBION         CLEAR     39  33  77 CALM      30.19R
BLAIR          CLEAR     45  29  52 NE8       30.17S
COLUMBUS       CLEAR     36  30  79 CALM      30.18F
FREMONT        CLEAR     39  31  72 CALM      30.18S
TEKAMAH        CLEAR     34  32  92 N8        30.19R WCI  27
WAYNE          CLEAR     30  29  96 CALM      30.19S
$$

NEZ050>053-065>068-078-088>093-231200-
SOUTHEAST NEBRASKA

CITY           SKY/WX    TMP DP  RH WIND       PRES   REMARKS
LINCOLN        CLEAR     37  29  72 CALM      30.18S
OMAHA EPPLEY   PTCLDY    37  29  72 N9        30.18R WCI  30
BEATRICE       PTCLDY    38  32  79 CALM      30.17R
FALLS CITY     CLEAR     48  28  46 N6        30.14R
NEBRASKA CITY  PTCLDY    45  30  55 N6        30.16S
PLATTSMOUTH    CLEAR     46  26  45 CALM      30.17S
$$

NEZ044-045-051>053-067-231200-
OMAHA AREA

CITY           SKY/WX    TMP DP  RH WIND       PRES   REMARKS
OMAHA EPPLEY   PTCLDY    37  29  72 N9        30.18R WCI  30
BLAIR          CLEAR     45  29  52 NE8       30.17S
FREMONT        CLEAR     39  31  72 CALM      30.18S
MILLARD        CLEAR     42  33  71 CALM      30.18R
OFFUTT AFB     CLEAR     35  29  77 CALM      30.16S
PLATTSMOUTH    CLEAR     46  26  45 CALM      30.17S
WAHOO          FAIR      37  27  69 N6        30.18R WCI  32
$$



USA.gov is the U.S. government's official web portal to all federal, state and local government web resources and services.